Regional Weather Roundup
Issued by NWS

Home | Current Version | Previous Version | Text Only | Print | Product List | Glossary Off
Versions: 1 2 3 4 5 6 7 8 9 10 11 12 13 14 15 16 17 18 19 20 21 22 23 24 25 26 27 28 29 30 31 32 33 34 35 36 37 38 39 40 41 42 43 44 45 46 47 48 49 50

000
ASUS43 KLOT 261308
RWRIL

ILLINOIS REGIONAL WEATHER ROUNDUP
NATIONAL WEATHER SERVICE CHICAGO/ROMEOVILLE IL
800 AM CDT TUE MAY 26 2015

NOTE: "FAIR" INDICATES FEW OR NO CLOUDS BELOW 12,000 FEET WITH NO
SIGNIFICANT WEATHER AND/OR OBSTRUCTIONS TO VISIBILITY.

* THESE STATIONS ARE NOT UNDER NWS QUALITY CONTROL. THEY ALSO MAY NOT
  REPORT WEATHER SUCH AS PRECIPITATION OR FOG.

ILZ001-002-007-009-015-016-024-261400-
NORTHWEST ILLINOIS

CITY           SKY/WX    TMP DP  RH WIND       PRES   REMARKS
MOLINE         CLOUDY    70  66  87 SE9       29.79F
STERLING*      CLOUDY    70  66  88 SE10      29.85F
SAVANNA*       CLOUDY    70  65  86 SE15      29.82F THUNDER
$$

ILZ003-004-008-010-011-017-018-261400-
NORTH CENTRAL ILLINOIS

CITY           SKY/WX    TMP DP  RH WIND       PRES   REMARKS
ROCKFORD       CLOUDY    69  65  86 S7        29.90F FOG
FREEPORT*      CLOUDY    68  65  91 SE15      29.87F
ROCHELLE*      CLOUDY    67  65  94 SE15      29.89F FOG
DE KALB*       CLOUDY    65  64  94 SE13      29.92F FOG
PERU*          CLOUDY    70  66  88 SE16      29.87F
$$

ILZ005-006-012>014-019>023-261400-
NORTHEAST ILLINOIS

CITY           SKY/WX    TMP DP  RH WIND       PRES   REMARKS
CHICAGO-OHARE  CLOUDY    68  64  87 S12       29.93F
CHICAGO-MIDWAY CLOUDY    71  65  81 S12       29.94F
AURORA         CLOUDY    69  64  84 SE13      29.92F HAZE
LANSING*       CLOUDY    69  63  80 S12       29.96F
JOLIET*        CLOUDY    70  66  87 S8        29.93F
WAUKEGAN       CLOUDY    66  63  90 SE8       29.93S
DUPAGE AIRPORT CLOUDY    68  64  87 S10       29.93F
KANKAKEE*      CLOUDY    70  66  88 SE9       29.95F
WHEELING       CLOUDY    69  64  84 S14       29.95S
MORRIS*        CLOUDY    69  65  88 SE8       29.91F
ROMEOVILLE*    CLOUDY    68  64  87 S9        29.94F
NORTHERLY ISL    N/A     69  62  78 S7          N/A
$$

LMZ740>746-261400-
SOUTHERN LAKE MICHIGAN

STATION/POSITION SKY/WX   TEMP    WIND        PRES    VSBY  WAVE
                          AIR SEA DIR/SP/G                  HT/PER
                          (F)     (DEG/KT/KT) (MB)    (MI)  (FT/S)
SOUTHERN BUOY              49 38  170/ 14/ 16 1014.9R         1/ 3
HARRISON CRIB              65     180/ 19/ 21   N/A
BURNHAM HARBOR             69     150/ 10/ 15   N/A
CALUMET HARBOR             68     170/ 11/ 15   N/A
BURNS HARBOR               68     180/ 10/ 19 1015.2F
MICHIGAN CITY              67     160/ 15/ 20   N/A
MICHIGAN CITY 6N           62 52  170/  6/  8   N/A           1/ 2
ST. JOSEPH                 61 54  200/  8/ 10   N/A           1/ 2
$$

ILZ025>027-034>036-040-047-049-050-058-095>099-261400-
WEST-CENTRAL ILLINOIS

CITY           SKY/WX    TMP DP  RH WIND       PRES   REMARKS
QUINCY         LGT RAIN  65  62  90 SW14      29.80F
GALESBURG*     CLOUDY    69  66  90 SE12G17   29.81F
MACOMB*        LGT RAIN  69  67  92 SE13G20   29.81F
JACKSONVILLE*  CLOUDY    73  69  86 SE16      29.81F
PITTSFIELD*    CLOUDY    65  61  86 SW13G24   29.83R
$$

ILZ028>032-037-038-041>044-048-051>054-059>061-261400-
CENTRAL ILLINOIS

CITY           SKY/WX    TMP DP  RH WIND       PRES   REMARKS
PONTIAC        CLOUDY    72  69  88 SE18G24   29.91F
BLOOMINGTON    LGT RAIN  69  69 100 SE15G21   29.91F VSB 1
DECATUR        LGT RAIN  70  67  90 SE13      29.90F
PEORIA         CLOUDY    72  67  84 SE13      29.85F
LACON*         PTSUNNY   71  66  84 S17       29.85F
LINCOLN*       CLOUDY    72  68  88 SE13      29.85F
SPRINGFIELD    LGT RAIN  73  68  84 SE17      29.84F
TAYLORVILLE    CLOUDY    70  66  88 SE16      29.86F
$$

ILZ033-039-045-046-055>057-062-063-261400-
EAST-CENTRAL ILLINOIS

CITY           SKY/WX    TMP DP  RH WIND       PRES   REMARKS
CHAMPAIGN      CLOUDY    69  67  93 SE18      29.94F FOG
DANVILLE*      DRIZZLE   67  66  97 S9        29.95S
RANTOUL*       CLOUDY    70  68  94 SE17      29.95S FOG
MATTOON        CLOUDY    69  66  90 SE14G20   29.93F
PARIS*         CLOUDY    70  67  89 SE15      29.98F
$$

ILZ079-100>102-261400-
SOUTHWEST ILLINOIS

CITY           SKY/WX    TMP DP  RH WIND       PRES   REMARKS
ALTON          LGT RAIN  72  72 100 S14G21    29.85F
BELLEVILLE     LGT RAIN  70  70 100 S17G31    29.86S FOG
CAHOKIA*       LGT RAIN  73  67  81 S13G18    29.86R
SPARTA*        DRIZZLE   71  67  89 S14G22    29.90S
$$

ILZ064>066-069>071-074>076-080>082-084>086-088>090-092>094-261400-
SOUTH-CENTRAL ILLINOIS

CITY           SKY/WX    TMP DP  RH WIND       PRES   REMARKS
CARBONDALE     CLOUDY    71  65  81 S16       29.92R
CAIRO*         CLOUDY    71  67  87 S12       29.96R
EFFINGHAM*     CLOUDY    72  65  79 SE17      29.93F
MARION         CLOUDY    73  68  83 S21       29.93R
MT. VERNON     CLOUDY    72  63  73 SE13      29.92S
CENTRALIA*     CLOUDY    71  65  79 S16       29.91R
SALEM*         CLOUDY    73  66  78 SE12G18   29.91R
METROPOLIS*    CLOUDY    72  69  91 S9G18     29.94R
$$

ILZ067-068-072-073-078-083-087-091-261400-
SOUTHEAST ILLINOIS

CITY           SKY/WX    TMP DP  RH WIND       PRES   REMARKS
LAWRENCEVILLE  PTSUNNY   72  66  81 S16       29.99F
FLORA*         PTSUNNY   70  65  85 SE17      29.93F
FAIRFIELD*     CLOUDY    70  66  87 SE15G21   29.92F
HARRISBURG*    CLOUDY    71  67  88 SE14      29.94F
ROBINSON*      CLOUDY    70  65  85 S16G22    29.99F
CARMI*         CLOUDY    72  63  73 SE15G24   29.96F
$$

ABBREVIATIONS USED IN REMARKS
   TC - TEMPERATURE IN CELSIUS
  WCI - WIND CHILL INDEX
   HX - HEAT INDEX
  VSB - VISIBILITY
$$




USA.gov is the U.S. government's official web portal to all federal, state and local government web resources and services.